Temperature
19 19 19 19 19 19 19 19 19 19 18 18 19 19 19 19 19 19 19 18 18 18 18 18 18 18 18 17 17 17 17 17 17 17 17 17 17 17 17 16 16 16 16
19 19 19 19 19 19 19 19 19 19 19 18 18 18 18 18 19 19 18 18 18 18 18 18 18 18 18 17 17 17 17 17 17 17 17 17 17 17 17 16 16 16 16
19 19 19 19 19 19 19 19 19 19 19 19 18 18 18 18 18 18 18 18 18 18 18 18 18 18 17 17 17 17 17 17 17 17 17 17 17 16 17 16 16 16 16
19 19 19 19 19 19 19 19 19 19 19 19 18 18 18 18 18 18 18 18 18 18 18 18 18 18 17 17 17 17 17 17 17 17 17 17 17 17 16 16 16 16 16
19 19 19 19 19 19 19 19 19 19 19 18 18 19 19 19 19 18 18 18 18 18 18 18 18 18 17 17 17 17 17 17 17 17 17 17 17 17 16 16 16 16 16
19 19 19 19 19 19 19 19 19 19 18 18 18 19 19 19 19 19 18 18 18 18 18 18 18 18 18 17 17 17 17 17 17 17 17 17 17 17 17 16 16 16 16
19 19 19 19 19 19 19 18 18 18 18 18 18 18 19 19 19 19 18 18 18 18 18 18 18 17 17 17 17 17 17 17 17 17 17 17 17 17 17 16 16 16 16
19 19 19 19 19 19 18 18 18 18 18 18 18 18 18 18 19 18 18 18 18 18 18 18 17 17 17 17 17 17 17 17 17 17 17 17 17 17 16 16 16 16 16
19 19 19 19 19 18 18 18 18 18 18 18 18 18 18 18 18 18 18 18 18 18 18 17 17 17 17 17 17 17 17 17 17 17 17 17 17 16 16 16 16 16 16
19 19 19 19 19 18 18 18 18 18 18 18 18 18 18 18 18 18 18 18 18 18 17 17 17 17 17 17 17 17 17 17 17 17 16 16 16 16 16 16 16 16 16
19 19 19 19 18 18 18 18 18 18 18 18 18 18 18 18 18 18 18 18 18 18 17 17 17 17 17 17 17 17 17 16 16 16 16 16 16 16 16 16 16 16 16
19 19 18 19 18 18 18 18 18 18 18 18 18 18 18 18 18 18 18 17 17 17 17 17 17 17 17 16 16 16 16 16 16 16 16 16 16 16 16 16 16 16 16
19 19 19 19 18 18 18 18 18 18 18 18 18 18 18 17 18 18 18 17 17 17 17 17 17 16 16 16 16 16 16 16 16 16 16 16 16 16 16 16 16 16 16
19 19 19 18 18 18 18 18 18 18 18 18 17 17 17 17 17 17 17 17 17 17 17 17 16 16 16 16 16 16 16 16 16 16 16 15 15 16 15 15 15 15 15
19 18 18 18 18 18 18 18 18 17 17 17 17 17 17 17 17 17 17 17 17 16 17 16 16 16 16 16 16 16 16 15 15 15 15 15 15 15 15 15 15 15 15
18 18 18 18 18 18 18 17 17 17 17 17 17 17 17 17 16 17 17 17 17 17 16 16 16 16 16 16 15 15 15 15 15 15 15 15 15 15 15 15 15 15 15
18 18 18 18 18 17 17 17 17 17 17 17 17 17 17 16 16 16 16 16 16 16 16 16 16 16 16 15 15 15 15 15 15 15 15 15 15 15 15 15 15 15 15
18 18 17 17 17 17 17 17 17 17 17 17 16 16 16 16 16 16 16 16 16 16 16 16 15 15 15 15 15 15 15 14 15 15 15 15 15 15 14 15 15 15 14
18 17 17 17 17 17 17 17 17 17 16 16 16 16 16 16 16 16 16 16 16 16 16 15 15 15 15 15 15 15 14 14 14 14 14 14 14 14 14 14 14 14 14
17 17 17 17 17 17 17 17 17 16 16 16 16 16 16 16 15 15 15 15 15 15 15 15 15 15 15 15 14 14 14 14 14 14 14 14 14 14 14 14 14 14 14
17 17 17 17 16 16 16 16 16 16 16 16 16 15 15 15 15 15 15 15 15 15 15 15 14 14 14 14 14 14 14 14 14 14 14 14 14 14 14 14 14 14 14
17 17 16 16 16 16 16 16 16 16 16 15 15 15 15 15 15 15 15 15 15 15 15 14 14 14 14 14 14 14 14 14 14 14 14 14 14 14 14 14 14 14 14
17 16 16 16 16 16 16 16 16 16 15 15 15 15 15 15 15 15 15 15 14 14 14 14 14 14 14 14 14 14 14 14 14 14 14 14 14 14 14 14 14 14 13
16 16 16 16 16 16 16 16 15 15 15 15 15 15 15 15 15 15 14 14 14 14 14 14 14 14 14 14 14 13 13 13 14 14 13 13 13 13 14 14 14 14 13
16 16 16 16 16 16 16 15 15 15 15 15 15 15 15 15 15 14 14 14 14 14 14 14 14 14 14 14 13 13 13 13 13 13 13 13 13 13 13 13 13 13 13
16 16 16 16 15 15 15 15 15 15 15 15 15 15 14 14 14 14 14 14 14 14 14 13 14 14 13 13 13 13 13 13 13 13 13 13 13 13 13 13 13 13 13
Wind_Speed
2 2 1 1 1 2 3 2 2 2 2 2 1 2 2 2 3 5 8 12 12 12 11 10 9 9 8 9 9 10 9 9 9 8 8 9 9 9 9 9 10 10 9
2 1 1 1 1 1 1 1 1 1 2 1 1 1 2 2 3 5 7 9 11 12 12 11 10 9 9 9 9 9 9 9 9 8 8 8 9 9 10 10 10 10 10
2 1 1 1 1 0 1 2 1 1 2 2 2 2 1 2 2 4 5 6 8 10 11 11 10 9 9 9 9 9 9 9 9 9 9 9 9 9 9 10 10 10 10
1 1 1 1 0 0 0 1 1 1 1 1 1 1 1 2 2 3 4 5 6 7 9 11 10 9 8 8 8 9 9 9 9 10 9 9 10 10 10 10 10 10 11
1 1 1 1 1 0 0 0 2 0 1 1 1 2 2 2 2 3 4 4 5 7 7 10 10 9 8 8 8 9 9 9 9 9 9 10 10 11 10 10 11 11 11
1 0 1 0 0 1 1 1 1 0 1 1 1 0 1 2 2 2 3 3 4 6 8 9 9 8 9 8 8 9 9 9 9 9 9 9 10 10 10 11 11 11 12
1 1 1 1 0 0 0 0 0 0 0 0 0 1 1 1 2 2 2 2 2 4 5 7 7 6 7 8 8 8 8 8 8 8 8 8 9 9 9 9 9 10 11
1 1 1 0 0 0 0 0 1 1 1 1 1 0 0 1 1 1 2 3 3 3 3 4 5 6 6 6 6 6 7 7 6 6 6 6 7 7 8 8 9 10 10
1 0 1 0 0 0 1 1 1 1 1 0 1 0 0 0 1 0 0 2 3 3 3 3 4 5 5 5 6 6 6 6 6 6 6 6 6 6 7 8 8 9 9
1 1 1 1 0 1 1 1 1 1 1 1 0 0 1 1 0 1 1 0 1 2 3 2 3 4 5 5 6 6 6 4 4 4 5 5 5 6 6 7 8 8 9
1 1 2 1 1 1 1 1 1 1 0 1 1 0 0 1 1 1 1 1 1 1 2 3 3 4 5 6 6 6 6 4 3 2 2 3 3 4 5 6 7 8 8
2 2 2 1 1 1 1 1 1 1 0 1 1 1 1 0 1 1 1 1 1 1 1 2 3 4 5 6 6 6 7 6 4 2 1 1 2 2 3 4 5 6 7
2 1 2 2 2 2 2 2 1 1 1 1 1 2 2 1 1 1 0 1 1 1 1 2 2 3 4 5 5 7 7 7 5 3 2 1 1 2 2 3 4 4 5
1 2 2 2 2 2 2 2 1 2 1 1 2 2 2 1 1 0 0 1 1 1 1 1 2 3 3 5 6 7 6 7 6 4 3 2 2 1 1 1 1 2 3
1 3 2 1 1 0 0 0 1 1 1 1 2 1 1 2 1 1 1 1 1 1 1 1 1 2 4 5 7 6 6 7 7 6 5 4 3 2 1 1 1 1 2
1 2 2 1 1 0 1 1 1 1 1 1 1 0 1 2 2 1 1 1 1 1 1 1 1 2 3 4 6 6 7 8 8 7 6 5 4 3 2 2 2 1 1
2 2 1 1 1 0 1 1 2 2 2 1 1 0 0 1 2 2 2 1 0 1 1 1 0 2 2 1 2 4 5 7 7 8 8 8 7 6 4 3 2 1 1
2 2 2 1 1 1 1 1 2 1 1 1 1 1 1 1 1 2 2 2 1 1 1 1 0 1 1 2 2 3 3 5 6 9 10 10 9 7 6 5 4 3 2
2 2 2 2 1 1 1 1 1 1 1 1 1 1 1 1 2 2 1 2 2 1 1 1 1 1 1 0 1 2 2 3 5 7 9 9 9 9 8 7 6 4 3
3 3 3 3 2 2 1 1 1 1 1 1 1 1 2 2 2 2 2 1 1 1 1 1 1 1 1 1 1 1 2 2 2 3 4 7 9 9 9 8 7 6 5
4 3 3 3 3 3 2 1 2 2 1 1 2 2 2 2 1 1 1 1 1 1 1 1 1 1 1 0 1 2 2 2 2 2 1 3 5 5 6 8 8 7 7
3 3 3 3 3 3 1 2 2 2 1 2 2 3 3 3 3 3 2 1 1 1 2 2 2 1 1 1 2 2 2 2 2 2 2 3 3 4 5 7 9 9 9
3 3 3 3 3 2 2 3 3 3 2 3 3 3 4 4 3 3 3 4 4 4 3 2 2 2 2 1 2 3 3 3 3 2 2 3 2 3 3 7 12 12 10
3 3 4 4 3 4 4 4 4 4 4 4 3 4 4 3 3 2 3 3 3 4 5 4 3 3 3 2 3 4 4 4 3 2 1 2 2 2 2 4 10 12 12
3 4 3 3 4 4 5 5 4 4 4 4 4 4 4 4 4 5 4 4 4 4 4 4 5 4 5 5 3 3 3 3 3 2 1 2 2 2 2 2 6 11 11
4 4 3 3 4 4 6 6 6 4 4 4 3 2 3 4 5 6 4 4 5 5 4 3 4 6 7 7 7 5 4 3 3 2 1 1 2 1 2 1 2 6 7
Wind_Direction
97 97 112 173 203 175 168 171 163 159 152 171 197 152 139 173 155 149 157 170 174 177 178 181 186 191 194 198 202 203 203 203 206 209 209 209 208 208 208 207 206 207 209
82 72 61 55 344 155 141 153 141 144 149 149 197 166 163 177 164 153 154 169 177 179 181 184 188 194 199 202 204 206 206 207 206 209 209 209 209 209 209 208 210 212 213
101 118 107 78 351 1 136 150 156 172 166 166 170 181 192 192 178 162 165 166 171 181 183 186 190 194 199 203 207 206 203 202 203 208 208 209 209 211 212 211 213 215 217
123 154 91 97 180 221 109 119 141 191 153 144 153 203 191 184 178 178 170 168 164 169 180 185 189 190 194 203 205 205 203 203 206 212 215 215 214 216 218 220 220 221 222
129 119 86 52 266 275 74 166 112 89 99 112 192 213 195 181 188 193 164 168 164 161 164 176 185 187 194 201 204 204 202 207 209 214 218 219 219 219 221 223 223 223 223
138 156 146 117 319 10 36 55 99 161 201 213 235 235 213 195 185 186 174 163 160 170 171 168 174 187 195 197 202 201 202 208 210 215 220 221 222 223 224 225 226 226 226
147 130 353 118 339 86 58 67 122 163 236 144 88 349 294 213 165 146 146 157 168 160 156 155 162 170 183 201 203 198 201 205 209 214 218 221 223 222 223 225 225 227 230
140 137 107 337 40 74 43 68 81 28 316 42 77 297 320 354 20 150 172 167 166 142 144 163 163 162 170 165 178 188 194 197 201 205 208 210 216 220 223 226 230 232 234
137 26 107 48 352 157 126 155 119 181 259 297 69 30 37 36 329 311 177 143 152 151 168 157 150 156 157 148 155 181 192 197 198 197 202 209 215 221 224 229 233 234 233
158 137 113 97 54 43 98 207 155 209 229 299 344 353 61 104 186 313 317 43 161 173 166 172 147 141 141 133 135 143 162 182 189 201 215 218 220 224 227 232 234 235 234
159 161 139 149 178 156 160 163 107 158 185 286 296 275 238 228 233 211 256 260 259 205 164 155 141 129 129 134 130 124 142 163 176 195 221 235 233 235 238 241 244 243 241
167 161 133 150 178 178 183 150 192 161 197 286 297 303 277 254 234 235 243 242 240 249 178 149 139 140 144 135 131 135 146 149 152 172 209 248 252 246 255 253 251 251 246
149 148 140 156 178 176 168 161 178 190 205 249 257 285 293 286 313 330 309 280 260 241 173 147 145 137 143 136 137 144 152 159 162 181 204 236 261 256 260 265 261 258 253
132 131 121 133 168 185 180 174 198 194 201 258 266 273 288 303 291 276 285 276 281 274 169 150 135 137 139 139 145 156 160 170 176 187 196 208 223 238 247 263 272 270 264
152 113 127 144 91 124 244 187 240 247 218 254 272 274 284 293 272 254 239 221 229 269 256 190 148 141 150 149 158 172 168 181 188 189 194 197 198 202 205 210 229 272 279
71 125 138 122 124 343 246 230 247 233 217 253 255 302 316 322 329 298 238 231 245 251 271 226 183 162 166 167 174 185 182 186 188 191 195 194 198 202 206 217 220 238 282
142 138 161 171 184 218 292 253 235 206 220 242 275 226 267 314 315 324 323 316 265 249 252 288 108 135 123 142 157 190 189 180 183 197 196 197 202 203 201 209 207 194 241
173 184 193 202 216 208 226 275 275 234 214 211 223 245 268 279 282 298 319 319 295 235 196 241 303 164 168 167 187 221 198 202 190 203 202 202 201 199 197 204 205 202 210
195 196 192 209 226 238 209 232 314 298 262 235 205 204 222 257 273 274 295 299 309 310 172 194 245 214 180 235 218 241 237 221 213 197 201 201 203 203 202 206 205 202 199
200 204 201 210 211 222 204 226 228 268 265 249 231 214 224 226 241 250 265 272 286 306 282 222 236 232 191 244 222 243 268 251 248 201 198 202 205 209 206 204 201 197 194
204 202 212 221 220 223 225 209 223 241 251 251 241 217 223 216 202 225 255 281 275 261 253 257 249 236 240 189 256 244 251 253 241 226 241 214 192 200 196 195 198 200 199
209 208 220 232 241 248 192 164 200 257 239 238 245 232 220 213 206 204 214 241 230 250 272 267 269 266 271 250 258 268 275 280 267 233 233 254 199 199 187 183 193 197 199
215 223 226 229 232 229 215 201 210 222 247 249 252 245 246 239 206 205 213 226 231 230 230 241 269 281 272 281 278 282 281 278 261 243 238 251 238 219 196 178 184 190 195
224 231 233 227 222 229 216 215 227 220 241 244 238 238 235 241 240 216 228 230 237 239 228 227 239 258 256 265 267 266 274 283 264 248 224 256 268 262 233 172 185 188 193
240 240 233 226 223 227 220 218 223 231 239 246 240 246 232 219 218 213 222 234 240 247 242 225 229 239 242 249 262 285 283 286 282 255 210 240 256 277 260 193 187 190 191
257 252 249 246 237 235 221 210 214 240 242 243 242 232 211 207 218 208 217 233 242 247 251 248 240 243 241 239 235 228 244 264 276 270 261 258 256 253 260 240 182 183 193
Height
1524 1524 1524 1524 1524 1525 1526 1526 1527 1528 1529 1530 1531 1532 1533 1534 1535 1535 1536 1537 1537 1538 1539 1539 1540 1541 1542 1542 1544 1545 1546 1547 1549 1550 1551 1552 1553 1554 1556 1557 1558 1560 1561
1525 1525 1525 1525 1525 1526 1526 1527 1527 1528 1529 1530 1531 1532 1533 1534 1534 1535 1535 1536 1536 1537 1538 1538 1539 1540 1540 1541 1542 1543 1545 1546 1547 1548 1550 1551 1552 1553 1554 1555 1557 1558 1559
1525 1526 1526 1525 1526 1526 1527 1527 1527 1528 1529 1530 1531 1532 1532 1533 1533 1533 1534 1535 1535 1536 1537 1537 1538 1539 1539 1540 1541 1542 1543 1544 1545 1547 1548 1549 1550 1551 1552 1553 1554 1555 1557
1525 1526 1526 1526 1526 1526 1526 1527 1527 1528 1529 1530 1530 1531 1532 1532 1532 1532 1533 1534 1534 1535 1536 1536 1537 1538 1538 1539 1539 1540 1541 1542 1543 1545 1546 1547 1547 1548 1549 1550 1552 1553 1554
1525 1525 1526 1525 1526 1526 1526 1526 1527 1528 1528 1529 1529 1530 1531 1531 1531 1532 1532 1533 1534 1534 1535 1535 1536 1536 1537 1537 1537 1538 1539 1540 1541 1542 1544 1545 1545 1546 1547 1548 1549 1550 1551
1525 1525 1525 1525 1525 1525 1526 1526 1527 1527 1528 1529 1529 1530 1530 1530 1530 1531 1531 1532 1533 1533 1534 1534 1534 1535 1535 1535 1535 1536 1537 1538 1539 1540 1541 1542 1543 1544 1545 1545 1546 1547 1548
1525 1525 1525 1525 1525 1525 1525 1525 1526 1527 1528 1529 1529 1529 1529 1529 1529 1530 1530 1531 1532 1533 1533 1533 1533 1534 1534 1534 1534 1535 1535 1536 1537 1538 1539 1540 1540 1541 1542 1543 1543 1544 1545
1524 1525 1524 1524 1524 1524 1525 1525 1525 1526 1527 1528 1528 1528 1529 1530 1529 1530 1530 1530 1531 1532 1532 1532 1533 1533 1532 1533 1533 1533 1534 1535 1535 1536 1537 1538 1538 1539 1539 1540 1540 1541 1542
1524 1524 1524 1523 1523 1524 1524 1524 1525 1525 1526 1527 1528 1528 1529 1529 1529 1530 1530 1530 1530 1530 1531 1532 1532 1532 1532 1532 1532 1532 1533 1533 1534 1534 1535 1535 1536 1536 1536 1537 1537 1538 1538
1523 1523 1523 1523 1523 1523 1523 1523 1524 1525 1526 1526 1527 1527 1528 1529 1529 1529 1530 1529 1529 1529 1530 1531 1531 1531 1531 1531 1531 1531 1531 1531 1532 1532 1532 1533 1533 1533 1533 1533 1534 1534 1535
1522 1522 1522 1522 1522 1522 1523 1523 1524 1524 1525 1525 1526 1526 1527 1528 1528 1528 1528 1529 1529 1529 1529 1529 1529 1529 1530 1530 1530 1529 1530 1530 1530 1530 1530 1530 1530 1530 1530 1530 1530 1531 1531
1521 1521 1521 1522 1522 1522 1522 1523 1523 1524 1524 1524 1525 1525 1526 1526 1526 1527 1527 1527 1527 1528 1528 1528 1528 1528 1528 1528 1528 1529 1528 1529 1528 1528 1528 1527 1527 1527 1527 1527 1527 1527 1527
1520 1520 1520 1520 1521 1521 1522 1522 1523 1523 1523 1523 1524 1524 1525 1525 1525 1525 1526 1526 1526 1527 1527 1527 1526 1527 1527 1526 1527 1527 1526 1527 1527 1526 1526 1525 1525 1524 1524 1524 1524 1524 1524
1519 1519 1519 1519 1520 1520 1521 1521 1521 1522 1522 1522 1523 1523 1523 1523 1524 1523 1524 1525 1525 1525 1525 1525 1525 1525 1525 1525 1525 1525 1525 1525 1524 1524 1523 1523 1522 1522 1521 1521 1521 1521 1520
1518 1518 1518 1518 1519 1519 1519 1520 1520 1520 1521 1521 1521 1521 1521 1521 1522 1522 1522 1523 1524 1524 1524 1524 1523 1523 1523 1523 1523 1523 1523 1523 1522 1522 1521 1521 1520 1519 1519 1518 1518 1518 1517
1516 1516 1516 1517 1517 1518 1518 1518 1518 1519 1519 1519 1519 1519 1519 1520 1520 1521 1521 1522 1522 1522 1522 1522 1522 1522 1521 1521 1521 1521 1520 1520 1520 1520 1519 1518 1518 1517 1517 1516 1516 1515 1514
1514 1514 1515 1515 1516 1516 1516 1516 1516 1517 1517 1517 1517 1517 1517 1518 1518 1518 1519 1520 1520 1520 1520 1521 1521 1520 1520 1519 1519 1519 1518 1518 1518 1518 1517 1517 1516 1515 1515 1514 1514 1513 1512
1512 1512 1512 1513 1513 1514 1514 1514 1515 1515 1515 1515 1515 1515 1515 1516 1516 1517 1517 1518 1518 1518 1519 1518 1519 1518 1518 1517 1517 1517 1516 1516 1516 1516 1516 1515 1515 1514 1513 1512 1512 1511 1510
1509 1510 1510 1510 1511 1511 1512 1512 1512 1512 1512 1513 1513 1513 1513 1514 1514 1515 1515 1515 1516 1516 1516 1517 1517 1517 1516 1516 1515 1515 1515 1515 1514 1514 1514 1513 1513 1512 1512 1511 1510 1509 1509
1507 1508 1508 1508 1509 1509 1509 1509 1510 1510 1510 1510 1510 1511 1511 1511 1512 1513 1513 1513 1514 1514 1514 1514 1514 1515 1514 1514 1513 1513 1513 1513 1513 1513 1512 1511 1511 1510 1510 1509 1509 1508 1507
1505 1506 1506 1506 1506 1506 1507 1507 1507 1507 1507 1507 1508 1508 1508 1509 1510 1510 1511 1511 1512 1512 1512 1512 1512 1512 1512 1512 1512 1512 1511 1511 1511 1511 1510 1510 1509 1508 1508 1507 1507 1506 1506
1503 1503 1504 1504 1504 1504 1504 1504 1504 1504 1505 1505 1505 1505 1506 1507 1507 1508 1508 1509 1510 1510 1510 1510 1510 1510 1510 1510 1510 1510 1509 1509 1508 1509 1508 1508 1507 1506 1505 1505 1505 1505 1504
1501 1501 1501 1501 1501 1502 1502 1502 1502 1502 1502 1502 1502 1503 1503 1504 1505 1505 1506 1506 1507 1507 1508 1508 1507 1507 1507 1507 1507 1507 1507 1506 1506 1506 1506 1505 1505 1504 1503 1503 1503 1502 1502
1498 1498 1498 1498 1498 1498 1499 1499 1499 1499 1499 1499 1499 1499 1500 1501 1502 1503 1503 1504 1504 1504 1504 1505 1504 1505 1505 1505 1505 1505 1504 1504 1504 1504 1504 1503 1502 1502 1501 1501 1500 1500 1500
1495 1495 1495 1495 1495 1495 1495 1496 1496 1496 1496 1496 1496 1497 1497 1498 1499 1499 1500 1500 1500 1501 1501 1501 1501 1502 1502 1502 1502 1502 1501 1501 1500 1500 1500 1500 1499 1499 1498 1498 1498 1498 1498
1492 1492 1492 1492 1492 1492 1492 1493 1493 1493 1493 1493 1493 1493 1494 1494 1495 1496 1496 1496 1496 1497 1498 1498 1498 1498 1498 1498 1498 1498 1497 1497 1497 1497 1497 1497 1497 1496 1496 1495 1495 1495 1495